| time (UTC) | temp F | wind direction | speed MPH | gust MPH | rain 1hr in | rain 24hr in | rain mn in | humidity % | barometer mb |
| 20260902112039 | 81 | 203 | 1.0 | 2.0 | 0.00 | 0.00 | 0.00 | 68 | 1050.1 |
| 20260902111539 | 81 | 220 | 1.0 | 2.0 | 0.00 | 0.00 | 0.00 | 68 | 1048.7 |
| 20260902111053 | 81 | 175 | 1.0 | 2.0 | 0.00 | 0.00 | 0.00 | 67 | 1047.1 |
| 20260902110522 | 81 | 218 | 1.0 | 2.0 | 0.00 | 0.00 | 0.00 | 67 | 1046.7 |
| 20260902110022 | 81 | 201 | 1.0 | 2.0 | 0.00 | 0.00 | 0.00 | 67 | 1046.5 |
| 20260902105522 | 81 | 213 | 1.0 | 2.0 | 0.00 | 0.00 | 0.00 | 67 | 1046.9 |
| 20260902105024 | 81 | 159 | 1.0 | 2.0 | 0.00 | 0.00 | 0.00 | 67 | 1045.8 |
| 20260902104522 | 81 | 221 | 1.0 | 2.0 | 0.00 | 0.00 | 0.00 | 67 | 1044.8 |
| 20260902104021 | 81 | 194 | 1.0 | 2.0 | 0.00 | 0.00 | 0.00 | 67 | 1044.6 |
| 20260902103543 | 82 | 165 | 1.0 | 2.0 | 0.00 | 0.00 | 0.00 | 67 | 1044.8 |
| 20260902103037 | 82 | 211 | 1.0 | 2.0 | 0.00 | 0.00 | 0.00 | 67 | 1046.0 |
| 20260902102522 | 82 | 206 | 1.0 | 2.0 | 0.00 | 0.00 | 0.00 | 67 | 1045.6 |
| 20260902102025 | 82 | 193 | 1.0 | 2.0 | 0.00 | 0.00 | 0.00 | 67 | 1044.7 |
| 20260902101544 | 82 | 189 | 1.0 | 1.0 | 0.00 | 0.00 | 0.00 | 67 | 1047.3 |
| 20260902101025 | 82 | 179 | 1.0 | 3.0 | 0.00 | 0.00 | 0.00 | 68 | 1047.7 |
| 20260902100542 | 81 | 191 | 1.0 | 2.0 | 0.00 | 0.00 | 0.00 | 68 | 1049.8 |
| 20260902100022 | 81 | 187 | 1.0 | 2.0 | 0.00 | 0.00 | 0.00 | 68 | 1050.8 |
| 20260902095523 | 81 | 159 | 2.0 | 2.0 | 0.00 | 0.00 | 0.00 | 69 | 1053.1 |
| 20260902095053 | 81 | 176 | 1.0 | 2.0 | 0.00 | 0.00 | 0.00 | 70 | 1057.6 |
| 20260902094553 | 81 | 186 | 1.0 | 2.0 | 0.00 | 0.00 | 0.00 | 70 | 1058.2 |
| 20260902094022 | 81 | 136 | 1.0 | 2.0 | 0.00 | 0.00 | 0.00 | 70 | 1059.7 |
| 20260902093626 | 81 | 142 | 1.0 | 2.0 | 0.00 | 0.00 | 0.00 | 70 | 1060.6 |
| 20260902093038 | 81 | 183 | 1.0 | 2.0 | 0.00 | 0.00 | 0.00 | 70 | 1059.7 |
| 20260902092523 | 81 | 190 | 1.0 | 2.0 | 0.00 | 0.00 | 0.00 | 70 | 1059.4 |
| 20260902092038 | 81 | 198 | 1.0 | 2.0 | 0.00 | 0.00 | 0.00 | 70 | 1059.3 |
| 20260902091545 | 81 | 154 | 1.0 | 2.0 | 0.00 | 0.00 | 0.00 | 70 | 1058.6 |
| 20260902091024 | 81 | 181 | 2.0 | 4.0 | 0.00 | 0.00 | 0.00 | 70 | 1058.7 |
| 20260902090557 | 81 | 192 | 1.0 | 2.0 | 0.00 | 0.00 | 0.00 | 70 | 1059.7 |
| 20260902090023 | 82 | 139 | 1.0 | 2.0 | 0.00 | 0.00 | 0.00 | 70 | 1059.7 |
| 20260902085615 | 82 | 194 | 1.0 | 2.0 | 0.00 | 0.00 | 0.00 | 70 | 1058.4 |
| 20260902085039 | 82 | 201 | 1.0 | 2.0 | 0.00 | 0.00 | 0.00 | 69 | 1055.6 |
| 20260902084524 | 82 | 185 | 1.0 | 2.0 | 0.00 | 0.00 | 0.00 | 69 | 1053.1 |
| 20260902084024 | 82 | 200 | 1.0 | 2.0 | 0.00 | 0.00 | 0.00 | 68 | 1052.1 |
| 20260902083539 | 82 | 164 | 1.0 | 2.0 | 0.00 | 0.00 | 0.00 | 68 | 1051.6 |
| 20260902083025 | 82 | 141 | 1.0 | 3.0 | 0.00 | 0.00 | 0.00 | 68 | 1051.1 |
| 20260902082540 | 82 | 157 | 1.0 | 2.0 | 0.00 | 0.00 | 0.00 | 68 | 1051.1 |
| 20260902082025 | 82 | 183 | 2.0 | 3.0 | 0.00 | 0.00 | 0.00 | 68 | 1049.9 |
| 20260902081608 | 83 | 169 | 2.0 | 3.0 | 0.00 | 0.00 | 0.00 | 68 | 1049.8 |
| 20260902081040 | 83 | 156 | 1.0 | 2.0 | 0.00 | 0.00 | 0.00 | 68 | 1049.5 |
| 20260902080540 | 83 | 129 | 1.0 | 2.0 | 0.00 | 0.00 | 0.00 | 67 | 1048.8 |
| 20260902080044 | 83 | 147 | 2.0 | 3.0 | 0.00 | 0.00 | 0.00 | 67 | 1046.4 |
| 20260902075544 | 83 | 196 | 2.0 | 3.0 | 0.00 | 0.00 | 0.00 | 67 | 1046.3 |
| 20260902075024 | 83 | 159 | 1.0 | 3.0 | 0.00 | 0.00 | 0.00 | 67 | 1046.3 |
| 20260902074526 | 83 | 181 | 1.0 | 2.0 | 0.00 | 0.00 | 0.00 | 67 | 1045.7 |
| 20260902074115 | 83 | 142 | 2.0 | 3.0 | 0.00 | 0.00 | 0.00 | 66 | 1044.3 |
| 20260902073609 | 83 | 154 | 1.0 | 2.0 | 0.00 | 0.00 | 0.00 | 67 | 1045.0 |
| 20260902073028 | 83 | 171 | 1.0 | 2.0 | 0.00 | 0.00 | 0.00 | 67 | 1045.3 |
| 20260902072526 | 83 | 178 | 1.0 | 2.0 | 0.00 | 0.00 | 0.00 | 67 | 1045.4 |
| 20260902072025 | 83 | 115 | 1.0 | 2.0 | 0.00 | 0.00 | 0.00 | 67 | 1045.2 |
| 20260902071543 | 83 | 149 | 1.0 | 2.0 | 0.00 | 0.00 | 0.00 | 67 | 1045.8 |
| 20260902071041 | 83 | 171 | 1.0 | 2.0 | 0.00 | 0.00 | 0.00 | 67 | 1046.6 |
| 20260902070526 | 83 | 165 | 1.0 | 2.0 | 0.00 | 0.00 | 0.00 | 67 | 1046.4 |
| 20260902070028 | 83 | 159 | 2.0 | 2.0 | 0.00 | 0.00 | 0.00 | 67 | 1047.7 |
| 20260902065546 | 83 | 166 | 1.0 | 2.0 | 0.00 | 0.00 | 0.00 | 67 | 1048.0 |
| 20260902065026 | 83 | 154 | 1.0 | 3.0 | 0.00 | 0.00 | 0.00 | 67 | 1049.1 |
| 20260902064526 | 83 | 129 | 1.0 | 2.0 | 0.00 | 0.00 | 0.00 | 68 | 1052.1 |
| 20260902064027 | 83 | 186 | 1.0 | 2.0 | 0.00 | 0.00 | 0.00 | 68 | 1052.8 |
| 20260902063541 | 83 | 161 | 1.0 | 2.0 | 0.00 | 0.00 | 0.00 | 68 | 1053.2 |
| 20260902063102 | 83 | 174 | 1.0 | 1.0 | 0.00 | 0.00 | 0.00 | 68 | 1053.3 |
| 20260902062526 | 83 | 149 | 1.0 | 2.0 | 0.00 | 0.00 | 0.00 | 68 | 1052.3 |
| 20260902062047 | 83 | 175 | 1.0 | 2.0 | 0.00 | 0.00 | 0.00 | 68 | 1052.2 |
| 20260902061541 | 83 | 195 | 1.0 | 2.0 | 0.00 | 0.00 | 0.00 | 67 | 1051.0 |
| 20260902061201 | 84 | 189 | 1.0 | 2.0 | 0.00 | 0.00 | 0.00 | 67 | 1049.7 |
| 20260902060528 | 84 | 189 | 1.0 | 2.0 | 0.00 | 0.00 | 0.00 | 67 | 1048.2 |
| 20260902055521 | 84 | 184 | 1.0 | 3.0 | 0.00 | 0.00 | 0.00 | 66 | 1046.1 |
| 20260902055028 | 84 | 168 | 1.0 | 3.0 | 0.00 | 0.00 | 0.00 | 66 | 1045.0 |
| 20260902054534 | 84 | 195 | 1.0 | 2.0 | 0.00 | 0.00 | 0.00 | 66 | 1044.1 |
| 20260902054022 | 84 | 165 | 1.0 | 3.0 | 0.00 | 0.00 | 0.00 | 66 | 1042.9 |
| 20260902053528 | 84 | 158 | 2.0 | 3.0 | 0.00 | 0.00 | 0.00 | 65 | 1042.1 |
| 20260902053028 | 84 | 172 | 2.0 | 4.0 | 0.00 | 0.00 | 0.00 | 65 | 1041.4 |
| 20260902052525 | 84 | 148 | 2.0 | 3.0 | 0.00 | 0.00 | 0.00 | 65 | 1041.6 |
| 20260902052044 | 84 | 161 | 1.0 | 3.0 | 0.00 | 0.00 | 0.00 | 65 | 1041.8 |
| 20260902051521 | 85 | 153 | 1.0 | 4.0 | 0.00 | 0.00 | 0.00 | 65 | 1040.9 |
| 20260902051023 | 85 | 172 | 1.0 | 3.0 | 0.00 | 0.00 | 0.00 | 65 | 1039.3 |
| 20260902050522 | 85 | 189 | 1.0 | 2.0 | 0.00 | 0.00 | 0.00 | 64 | 1038.9 |
| 20260902050022 | 85 | 160 | 1.0 | 3.0 | 0.00 | 0.00 | 0.00 | 64 | 1038.0 |
| 20260902045523 | 85 | 169 | 2.0 | 3.0 | 0.00 | 0.00 | 0.00 | 64 | 1037.0 |
| 20260902045023 | 85 | 155 | 1.0 | 3.0 | 0.00 | 0.00 | 0.00 | 64 | 1035.7 |
| 20260902044543 | 85 | 194 | 1.0 | 2.0 | 0.00 | 0.00 | 0.00 | 63 | 1034.5 |
| 20260902044043 | 86 | 164 | 1.0 | 3.0 | 0.00 | 0.00 | 0.00 | 63 | 1033.4 |
| 20260902043526 | 86 | 160 | 2.0 | 4.0 | 0.00 | 0.00 | 0.00 | 63 | 1032.5 |
| 20260902043023 | 86 | 176 | 1.0 | 4.0 | 0.00 | 0.00 | 0.00 | 62 | 1031.5 |
| 20260902042543 | 86 | 157 | 2.0 | 3.0 | 0.00 | 0.00 | 0.00 | 62 | 1030.1 |
| 20260902042027 | 86 | 161 | 2.0 | 4.0 | 0.00 | 0.00 | 0.00 | 61 | 1029.0 |
| 20260902041533 | 86 | 170 | 2.0 | 3.0 | 0.00 | 0.00 | 0.00 | 61 | 1027.6 |
| 20260902041023 | 86 | 159 | 2.0 | 3.0 | 0.00 | 0.00 | 0.00 | 61 | 1027.1 |
| 20260902040520 | 86 | 146 | 1.0 | 3.0 | 0.00 | 0.00 | 0.00 | 61 | 1027.0 |
| 20260902040023 | 86 | 168 | 1.0 | 4.0 | 0.00 | 0.00 | 0.00 | 60 | 1026.1 |
| 20260902035524 | 86 | 164 | 2.0 | 2.0 | 0.00 | 0.00 | 0.00 | 60 | 1025.5 |
| 20260902035032 | 87 | 169 | 1.0 | 2.0 | 0.00 | 0.00 | 0.00 | 60 | 1025.1 |
| 20260902034524 | 87 | 192 | 1.0 | 3.0 | 0.00 | 0.00 | 0.00 | 60 | 1024.9 |
| 20260902034104 | 87 | 169 | 1.0 | 3.0 | 0.00 | 0.00 | 0.00 | 60 | 1024.1 |
| 20260902033524 | 87 | 172 | 1.0 | 3.0 | 0.00 | 0.00 | 0.00 | 59 | 1023.3 |
| 20260902033030 | 87 | 179 | 1.0 | 3.0 | 0.00 | 0.00 | 0.00 | 59 | 1022.7 |
| 20260902032542 | 87 | 190 | 1.0 | 3.0 | 0.00 | 0.00 | 0.00 | 58 | 1021.6 |
| 20260902032022 | 87 | 167 | 1.0 | 3.0 | 0.00 | 0.00 | 0.00 | 58 | 1021.4 |
| 20260902031522 | 87 | 177 | 1.0 | 3.0 | 0.00 | 0.00 | 0.00 | 58 | 1020.7 |
| 20260902031022 | 87 | 175 | 1.0 | 4.0 | 0.00 | 0.00 | 0.00 | 57 | 1020.2 |
| 20260902030528 | 87 | 170 | 1.0 | 3.0 | 0.00 | 0.00 | 0.00 | 57 | 1019.6 |
| 20260902030026 | 87 | 210 | 1.0 | 2.0 | 0.00 | 0.00 | 0.00 | 56 | 1018.6 |
| 20260902025521 | 87 | 195 | 1.0 | 2.0 | 0.00 | 0.00 | 0.00 | 56 | 1017.6 |
| 20260902025021 | 87 | 195 | 1.0 | 2.0 | 0.00 | 0.00 | 0.00 | 55 | 1017.1 |
| 20260902024522 | 87 | 174 | 1.0 | 3.0 | 0.00 | 0.00 | 0.00 | 55 | 1016.7 |
| 20260902024101 | 88 | 193 | 1.0 | 2.0 | 0.00 | 0.00 | 0.00 | 54 | 1016.5 |
| 20260902023549 | 88 | 194 | 1.0 | 2.0 | 0.00 | 0.00 | 0.00 | 54 | 1016.4 |
| 20260902023025 | 88 | 182 | 1.0 | 2.0 | 0.00 | 0.00 | 0.00 | 54 | 1016.5 |
| 20260902022522 | 88 | 158 | 1.0 | 3.0 | 0.00 | 0.00 | 0.00 | 54 | 1016.3 |
| 20260902022025 | 88 | 179 | 1.0 | 4.0 | 0.00 | 0.00 | 0.00 | 54 | 1016.3 |
| 20260902021521 | 88 | 180 | 1.0 | 3.0 | 0.00 | 0.00 | 0.00 | 55 | 1016.6 |
| 20260902021024 | 88 | 189 | 1.0 | 2.0 | 0.00 | 0.00 | 0.00 | 55 | 1016.7 |
| 20260902020522 | 89 | 220 | 1.0 | 2.0 | 0.00 | 0.00 | 0.00 | 55 | 1016.5 |
| 20260902020044 | 89 | 199 | 1.0 | 2.0 | 0.00 | 0.00 | 0.00 | 54 | 1016.2 |
| 20260902015535 | 89 | 193 | 1.0 | 2.0 | 0.00 | 0.00 | 0.00 | 54 | 1015.9 |
| 20260902015023 | 89 | 194 | 1.0 | 2.0 | 0.00 | 0.00 | 0.00 | 54 | 1015.6 |
| 20260902014523 | 89 | 175 | 1.0 | 3.0 | 0.00 | 0.00 | 0.00 | 53 | 1015.6 |
| 20260902014035 | 89 | 189 | 1.0 | 2.0 | 0.00 | 0.00 | 0.00 | 53 | 1015.4 |
| 20260902013523 | 90 | 179 | 1.0 | 2.0 | 0.00 | 0.00 | 0.00 | 53 | 1015.3 |
| 20260902013026 | 90 | 192 | 1.0 | 2.0 | 0.00 | 0.00 | 0.00 | 53 | 1015.2 |
| 20260902012540 | 90 | 224 | 1.0 | 2.0 | 0.00 | 0.00 | 0.00 | 53 | 1015.0 |
| 20260902012040 | 90 | 211 | 1.0 | 1.0 | 0.00 | 0.00 | 0.00 | 52 | 1014.7 |
| 20260902011520 | 91 | 208 | 1.0 | 1.0 | 0.00 | 0.00 | 0.00 | 52 | 1014.4 |
| 20260902011039 | 91 | 242 | 1.0 | 2.0 | 0.00 | 0.00 | 0.00 | 51 | 1014.1 |
| 20260902010523 | 91 | 228 | 1.0 | 2.0 | 0.00 | 0.00 | 0.00 | 50 | 1013.9 |
| 20260902010023 | 91 | 219 | 1.0 | 2.0 | 0.00 | 0.00 | 0.00 | 50 | 1013.7 |
| 20260902005525 | 92 | 194 | 1.0 | 1.0 | 0.00 | 0.00 | 0.00 | 49 | 1013.4 |
| 20260902005029 | 92 | 251 | 1.0 | 3.0 | 0.00 | 0.00 | 0.00 | 49 | 1013.2 |
| 20260902004546 | 92 | 243 | 1.0 | 2.0 | 0.00 | 0.00 | 0.00 | 48 | 1013.0 |
| 20260902004020 | 92 | 197 | 1.0 | 2.0 | 0.00 | 0.00 | 0.00 | 48 | 1012.9 |
| 20260902003521 | 93 | 191 | 1.0 | 2.0 | 0.00 | 0.00 | 0.00 | 47 | 1012.8 |
| 20260902003023 | 93 | 188 | 1.0 | 1.0 | 0.00 | 0.00 | 0.00 | 46 | 1012.6 |
| 20260902002521 | 93 | 188 | 1.0 | 2.0 | 0.00 | 0.00 | 0.00 | 46 | 1012.6 |
| 20260902002041 | 94 | 225 | 0.0 | 2.0 | 0.00 | 0.00 | 0.00 | 46 | 1012.4 |
| 20260902001527 | 94 | 202 | 1.0 | 2.0 | 0.00 | 0.00 | 0.00 | 45 | 1012.4 |
| 20260902001025 | 94 | 248 | 0.0 | 1.0 | 0.00 | 0.00 | 0.00 | 45 | 1012.1 |
| 20260902000525 | 94 | 243 | 1.0 | 2.0 | 0.00 | 0.00 | 0.00 | 44 | 1012.0 |
| 20260902000022 | 94 | 230 | 0.0 | 2.0 | 0.00 | 0.00 | 0.00 | 44 | 1012.1 |
| 20260901235525 | 95 | 180 | 1.0 | 3.0 | 0.00 | 0.00 | 0.00 | 44 | 1012.0 |
| 20260901235025 | 95 | 176 | 1.0 | 2.0 | 0.00 | 0.00 | 0.00 | 44 | 1012.0 |
| 20260901234601 | 95 | 210 | 1.0 | 3.0 | 0.00 | 0.00 | 0.00 | 44 | 1012.0 |
| 20260901234023 | 95 | 239 | 1.0 | 3.0 | 0.00 | 0.00 | 0.00 | 43 | 1011.8 |
| 20260901233542 | 95 | 261 | 1.0 | 2.0 | 0.00 | 0.00 | 0.00 | 43 | 1011.8 |
| 20260901233042 | 96 | 170 | 1.0 | 2.0 | 0.00 | 0.00 | 0.00 | 42 | 1011.7 |
| 20260901232521 | 96 | 190 | 0.0 | 2.0 | 0.00 | 0.00 | 0.00 | 42 | 1011.6 |
| 20260901232022 | 96 | 191 | 1.0 | 2.0 | 0.00 | 0.00 | 0.00 | 41 | 1011.5 |
| 20260901231522 | 96 | 262 | 1.0 | 4.0 | 0.00 | 0.00 | 0.00 | 41 | 1011.4 |
| 20260901231030 | 97 | 172 | 1.0 | 2.0 | 0.00 | 0.00 | 0.00 | 41 | 1011.2 |
| 20260901230523 | 97 | 172 | 1.0 | 2.0 | 0.00 | 0.00 | 0.00 | 40 | 1011.0 |
| 20260901230022 | 97 | 158 | 1.0 | 4.0 | 0.00 | 0.00 | 0.00 | 39 | 1010.8 |
| 20260901225522 | 97 | 225 | 1.0 | 2.0 | 0.00 | 0.00 | 0.00 | 39 | 1010.8 |
| 20260901225023 | 97 | 162 | 0.0 | 2.0 | 0.00 | 0.00 | 0.00 | 39 | 1010.7 |
| 20260901224522 | 98 | 156 | 1.0 | 3.0 | 0.00 | 0.00 | 0.00 | 38 | 1010.6 |
| 20260901224023 | 98 | 152 | 1.0 | 4.0 | 0.00 | 0.00 | 0.00 | 38 | 1010.6 |
| 20260901223528 | 99 | 141 | 1.0 | 4.0 | 0.00 | 0.00 | 0.00 | 37 | 1010.3 |
| 20260901223059 | 100 | 147 | 1.0 | 5.0 | 0.00 | 0.00 | 0.00 | 36 | 1010.0 |
| 20260901222528 | 100 | 64 | 0.0 | 2.0 | 0.00 | 0.00 | 0.00 | 35 | 1010.0 |
| 20260901222040 | 100 | 241 | 1.0 | 3.0 | 0.00 | 0.00 | 0.00 | 35 | 1009.9 |
| 20260901221522 | 100 | 321 | 1.0 | 4.0 | 0.00 | 0.00 | 0.00 | 35 | 1009.7 |
| 20260901221025 | 100 | 133 | 1.0 | 3.0 | 0.00 | 0.00 | 0.00 | 35 | 1009.9 |
| 20260901220533 | 100 | 139 | 1.0 | 4.0 | 0.00 | 0.00 | 0.00 | 34 | 1009.6 |
| 20260901220024 | 100 | 296 | 1.0 | 3.0 | 0.00 | 0.00 | 0.00 | 33 | 1009.5 |
| 20260901215532 | 100 | 153 | 1.0 | 4.0 | 0.00 | 0.00 | 0.00 | 34 | 1009.6 |
| 20260901215024 | 101 | 144 | 1.0 | 4.0 | 0.00 | 0.00 | 0.00 | 34 | 1009.6 |
| 20260901214522 | 100 | 108 | 1.0 | 3.0 | 0.00 | 0.00 | 0.00 | 33 | 1009.5 |
| 20260901214021 | 100 | 198 | 1.0 | 3.0 | 0.00 | 0.00 | 0.00 | 33 | 1009.5 |
| 20260901213524 | 100 | 155 | 1.0 | 3.0 | 0.00 | 0.00 | 0.00 | 34 | 1009.6 |
| 20260901213028 | 100 | 131 | 1.0 | 3.0 | 0.00 | 0.00 | 0.00 | 34 | 1009.6 |
| 20260901212524 | 100 | 163 | 1.0 | 5.0 | 0.00 | 0.00 | 0.00 | 34 | 1009.6 |
| 20260901212025 | 100 | 135 | 1.0 | 4.0 | 0.00 | 0.00 | 0.00 | 34 | 1009.6 |
| 20260901211545 | 100 | 131 | 1.0 | 3.0 | 0.00 | 0.00 | 0.00 | 35 | 1009.6 |
| 20260901211026 | 100 | 270 | 1.0 | 3.0 | 0.00 | 0.00 | 0.00 | 34 | 1009.6 |
| 20260901210524 | 100 | 179 | 1.0 | 3.0 | 0.00 | 0.00 | 0.00 | 34 | 1009.9 |
| 20260901210039 | 100 | 235 | 1.0 | 2.0 | 0.00 | 0.00 | 0.00 | 34 | 1009.7 |
| 20260901205524 | 100 | 280 | 1.0 | 4.0 | 0.00 | 0.00 | 0.00 | 34 | 1009.8 |
| 20260901205025 | 100 | 267 | 1.0 | 4.0 | 0.00 | 0.00 | 0.00 | 35 | 1010.0 |
| 20260901204521 | 100 | 280 | 1.0 | 4.0 | 0.00 | 0.00 | 0.00 | 34 | 1010.0 |
| 20260901204022 | 100 | 275 | 1.0 | 3.0 | 0.00 | 0.00 | 0.00 | 34 | 1010.1 |
| 20260901203521 | 100 | 155 | 1.0 | 3.0 | 0.00 | 0.00 | 0.00 | 35 | 1010.2 |
| 20260901203040 | 100 | 145 | 1.0 | 3.0 | 0.00 | 0.00 | 0.00 | 35 | 1010.2 |
| 20260901202529 | 100 | 150 | 1.0 | 3.0 | 0.00 | 0.00 | 0.00 | 34 | 1010.2 |
| 20260901202023 | 100 | 141 | 1.0 | 3.0 | 0.00 | 0.00 | 0.00 | 35 | 1010.2 |
| 20260901201525 | 100 | 154 | 2.0 | 5.0 | 0.00 | 0.00 | 0.00 | 35 | 1010.3 |
| 20260901201022 | 99 | 156 | 1.0 | 4.0 | 0.00 | 0.00 | 0.00 | 36 | 1010.5 |
| 20260901200528 | 99 | 145 | 2.0 | 5.0 | 0.00 | 0.00 | 0.00 | 34 | 1010.4 |
| 20260901200043 | 99 | 289 | 1.0 | 3.0 | 0.00 | 0.00 | 0.00 | 35 | 1010.4 |
| 20260901195522 | 99 | 271 | 1.0 | 3.0 | 0.00 | 0.00 | 0.00 | 35 | 1010.4 |
| 20260901195033 | 99 | 171 | 1.0 | 4.0 | 0.00 | 0.00 | 0.00 | 35 | 1010.5 |
| 20260901194543 | 99 | 135 | 1.0 | 5.0 | 0.00 | 0.00 | 0.00 | 35 | 1010.4 |
| 20260901194041 | 99 | 150 | 1.0 | 3.0 | 0.00 | 0.00 | 0.00 | 35 | 1010.6 |
| 20260901193523 | 99 | 153 | 1.0 | 4.0 | 0.00 | 0.00 | 0.00 | 36 | 1010.8 |
| 20260901193021 | 99 | 221 | 0.0 | 2.0 | 0.00 | 0.00 | 0.00 | 36 | 1010.8 |
| 20260901192520 | 99 | 141 | 2.0 | 4.0 | 0.00 | 0.00 | 0.00 | 36 | 1011.0 |
| 20260901192022 | 99 | 156 | 1.0 | 4.0 | 0.00 | 0.00 | 0.00 | 36 | 1010.9 |
| 20260901191543 | 99 | 157 | 1.0 | 4.0 | 0.00 | 0.00 | 0.00 | 36 | 1011.0 |
| 20260901191028 | 99 | 137 | 1.0 | 2.0 | 0.00 | 0.00 | 0.00 | 36 | 1011.0 |
| 20260901190522 | 99 | 170 | 1.0 | 3.0 | 0.00 | 0.00 | 0.00 | 36 | 1011.0 |
| 20260901190022 | 99 | 152 | 1.0 | 4.0 | 0.00 | 0.00 | 0.00 | 37 | 1011.3 |
| 20260901185522 | 99 | 115 | 1.0 | 3.0 | 0.00 | 0.00 | 0.00 | 35 | 1011.1 |
| 20260901185022 | 99 | 155 | 2.0 | 4.0 | 0.00 | 0.00 | 0.00 | 34 | 1010.7 |
| 20260901184522 | 99 | 156 | 1.0 | 4.0 | 0.00 | 0.00 | 0.00 | 35 | 1011.0 |
| 20260901184021 | 99 | 137 | 2.0 | 5.0 | 0.00 | 0.00 | 0.00 | 36 | 1011.0 |
| 20260901183520 | 100 | 152 | 1.0 | 4.0 | 0.00 | 0.00 | 0.00 | 34 | 1010.9 |
| 20260901183022 | 100 | 114 | 2.0 | 5.0 | 0.00 | 0.00 | 0.00 | 36 | 1011.1 |
| 20260901182521 | 101 | 141 | 1.0 | 3.0 | 0.00 | 0.00 | 0.00 | 38 | 1011.3 |
| 20260901182024 | 101 | 146 | 1.0 | 2.0 | 0.00 | 0.00 | 0.00 | 37 | 1011.5 |
| 20260901181522 | 100 | 285 | 1.0 | 4.0 | 0.00 | 0.00 | 0.00 | 37 | 1011.1 |
| 20260901181022 | 100 | 289 | 1.0 | 4.0 | 0.00 | 0.00 | 0.00 | 37 | 1011.3 |
| 20260901180521 | 99 | 151 | 2.0 | 4.0 | 0.00 | 0.00 | 0.00 | 39 | 1011.6 |
| 20260901180022 | 99 | 134 | 2.0 | 4.0 | 0.00 | 0.00 | 0.00 | 41 | 1012.1 |
| 20260901175522 | 99 | 139 | 1.0 | 3.0 | 0.00 | 0.00 | 0.00 | 42 | 1012.1 |
| 20260901175023 | 99 | 197 | 1.0 | 3.0 | 0.00 | 0.00 | 0.00 | 41 | 1012.1 |
| 20260901174524 | 98 | 275 | 1.0 | 3.0 | 0.00 | 0.00 | 0.00 | 43 | 1012.5 |
| 20260901174024 | 98 | 138 | 2.0 | 6.0 | 0.00 | 0.00 | 0.00 | 44 | 1012.8 |
| 20260901173526 | 98 | 135 | 1.0 | 4.0 | 0.00 | 0.00 | 0.00 | 44 | 1012.7 |
| 20260901173023 | 97 | 160 | 1.0 | 3.0 | 0.00 | 0.00 | 0.00 | 43 | 1012.7 |
| 20260901172522 | 97 | 185 | 1.0 | 3.0 | 0.00 | 0.00 | 0.00 | 45 | 1013.1 |
| 20260901172026 | 97 | 121 | 2.0 | 4.0 | 0.00 | 0.00 | 0.00 | 45 | 1013.0 |
| 20260901171523 | 97 | 99 | 1.0 | 6.0 | 0.00 | 0.00 | 0.00 | 45 | 1013.2 |
| 20260901171022 | 97 | 140 | 1.0 | 4.0 | 0.00 | 0.00 | 0.00 | 45 | 1013.0 |
| 20260901170525 | 97 | 136 | 1.0 | 5.0 | 0.00 | 0.00 | 0.00 | 45 | 1013.2 |
| 20260901170023 | 97 | 127 | 1.0 | 3.0 | 0.00 | 0.00 | 0.00 | 45 | 1013.2 |
| 20260901165527 | 97 | 156 | 2.0 | 4.0 | 0.00 | 0.00 | 0.00 | 46 | 1013.3 |
| 20260901165025 | 97 | 154 | 1.0 | 4.0 | 0.00 | 0.00 | 0.00 | 44 | 1013.0 |
| 20260901164526 | 96 | 146 | 1.0 | 5.0 | 0.00 | 0.00 | 0.00 | 45 | 1013.4 |
| 20260901164102 | 95 | 269 | 1.0 | 3.0 | 0.00 | 0.00 | 0.00 | 45 | 1013.2 |
| 20260901163547 | 95 | 216 | 1.0 | 3.0 | 0.00 | 0.00 | 0.00 | 47 | 1013.7 |
| 20260901163024 | 94 | 147 | 2.0 | 5.0 | 0.00 | 0.00 | 0.00 | 48 | 1013.9 |
| 20260901162524 | 94 | 169 | 1.0 | 5.0 | 0.00 | 0.00 | 0.00 | 48 | 1014.0 |
| 20260901162025 | 94 | 151 | 2.0 | 5.0 | 0.00 | 0.00 | 0.00 | 48 | 1013.9 |
| 20260901161524 | 95 | 153 | 2.0 | 5.0 | 0.00 | 0.00 | 0.00 | 47 | 1013.7 |
| 20260901161025 | 94 | 161 | 2.0 | 4.0 | 0.00 | 0.00 | 0.00 | 48 | 1013.9 |
| 20260901160523 | 94 | 140 | 2.0 | 4.0 | 0.00 | 0.00 | 0.00 | 49 | 1014.1 |
| 20260901160025 | 94 | 169 | 2.0 | 5.0 | 0.00 | 0.00 | 0.00 | 49 | 1013.9 |
| 20260901155540 | 94 | 149 | 1.0 | 5.0 | 0.00 | 0.00 | 0.00 | 49 | 1013.9 |
| 20260901155021 | 94 | 150 | 2.0 | 4.0 | 0.00 | 0.00 | 0.00 | 48 | 1013.8 |
| 20260901154521 | 93 | 184 | 1.0 | 3.0 | 0.00 | 0.00 | 0.00 | 49 | 1013.9 |
| 20260901154020 | 93 | 138 | 1.0 | 3.0 | 0.00 | 0.00 | 0.00 | 49 | 1014.0 |
| 20260901153520 | 94 | 142 | 2.0 | 4.0 | 0.00 | 0.00 | 0.00 | 50 | 1014.1 |
| 20260901153024 | 93 | 162 | 1.0 | 3.0 | 0.00 | 0.00 | 0.00 | 50 | 1014.0 |
| 20260901152525 | 93 | 158 | 1.0 | 3.0 | 0.00 | 0.00 | 0.00 | 51 | 1014.1 |
| 20260901152041 | 93 | 138 | 2.0 | 4.0 | 0.00 | 0.00 | 0.00 | 50 | 1014.1 |
| 20260901151524 | 92 | 180 | 1.0 | 4.0 | 0.00 | 0.00 | 0.00 | 50 | 1014.0 |
| 20260901151043 | 92 | 173 | 1.0 | 4.0 | 0.00 | 0.00 | 0.00 | 51 | 1014.1 |
| 20260901150542 | 91 | 203 | 1.0 | 3.0 | 0.00 | 0.00 | 0.00 | 53 | 1014.6 |
| 20260901150026 | 90 | 161 | 1.0 | 3.0 | 0.00 | 0.00 | 0.00 | 53 | 1014.6 |
| 20260901145526 | 90 | 149 | 2.0 | 3.0 | 0.00 | 0.00 | 0.00 | 55 | 1015.0 |
| 20260901145027 | 89 | 144 | 2.0 | 3.0 | 0.00 | 0.00 | 0.00 | 56 | 1015.2 |
| 20260901144526 | 88 | 154 | 2.0 | 3.0 | 0.00 | 0.00 | 0.00 | 56 | 1016.0 |
| 20260901144026 | 88 | 178 | 2.0 | 3.0 | 0.00 | 0.00 | 0.00 | 58 | 1016.8 |
| 20260901143526 | 87 | 122 | 1.0 | 2.0 | 0.00 | 0.00 | 0.00 | 59 | 1018.6 |
| 20260901143026 | 87 | 128 | 3.0 | 5.0 | 0.00 | 0.00 | 0.00 | 59 | 1019.1 |
| 20260901142547 | 86 | 181 | 1.0 | 2.0 | 0.00 | 0.00 | 0.00 | 61 | 1023.4 |
| 20260901142026 | 85 | 116 | 2.0 | 5.0 | 0.00 | 0.00 | 0.00 | 62 | 1025.3 |
| 20260901141527 | 85 | 191 | 2.0 | 2.0 | 0.00 | 0.00 | 0.00 | 63 | 1031.7 |
| 20260901141026 | 84 | 168 | 1.0 | 2.0 | 0.00 | 0.00 | 0.00 | 64 | 1036.5 |
| 20260901140527 | 84 | 159 | 2.0 | 2.0 | 0.00 | 0.00 | 0.00 | 64 | 1033.8 |
| 20260901140027 | 83 | 149 | 1.0 | 2.0 | 0.00 | 0.00 | 0.00 | 65 | 1038.2 |
| 20260901135527 | 83 | 167 | 2.0 | 3.0 | 0.00 | 0.00 | 0.00 | 66 | 1041.1 |
| 20260901135027 | 82 | 114 | 1.0 | 2.0 | 0.00 | 0.00 | 0.00 | 67 | 1044.5 |
| 20260901134527 | 82 | 116 | 1.0 | 2.0 | 0.00 | 0.00 | 0.00 | 67 | 1048.9 |
| 20260901134029 | 81 | 183 | 1.0 | 2.0 | 0.00 | 0.00 | 0.00 | 69 | 858.2 |
| 20260901133527 | 81 | 117 | 2.0 | 2.0 | 0.00 | 0.00 | 0.00 | 70 | 858.1 |
| 20260901133027 | 80 | 158 | 1.0 | 2.0 | 0.00 | 0.00 | 0.00 | 71 | 858.0 |
| 20260901132528 | 80 | 162 | 1.0 | 2.0 | 0.00 | 0.00 | 0.00 | 72 | 858.0 |
| 20260901132029 | 79 | 63 | 1.0 | 2.0 | 0.00 | 0.00 | 0.00 | 73 | 858.0 |
| 20260901131528 | 79 | 67 | 1.0 | 2.0 | 0.00 | 0.00 | 0.00 | 74 | 857.9 |
| 20260901131028 | 79 | 119 | 1.0 | 2.0 | 0.00 | 0.00 | 0.00 | 75 | 857.9 |
| 20260901130551 | 78 | 161 | 1.0 | 1.0 | 0.00 | 0.00 | 0.00 | 76 | 857.9 |
| 20260901130029 | 78 | 157 | 1.0 | 2.0 | 0.00 | 0.00 | 0.00 | 76 | 857.9 |
| 20260901125547 | 78 | 189 | 1.0 | 2.0 | 0.00 | 0.00 | 0.00 | 77 | 857.8 |
| 20260901125028 | 77 | 146 | 1.0 | 1.0 | 0.00 | 0.00 | 0.00 | 77 | 857.8 |
| 20260901124528 | 77 | 142 | 1.0 | 1.0 | 0.00 | 0.00 | 0.00 | 77 | 857.8 |
| 20260901124029 | 77 | 126 | 1.0 | 1.0 | 0.00 | 0.00 | 0.00 | 78 | 857.8 |
| 20260901123549 | 77 | 158 | 1.0 | 1.0 | 0.00 | 0.00 | 0.00 | 78 | 857.8 |
| 20260901123030 | 76 | 144 | 1.0 | 1.0 | 0.00 | 0.00 | 0.00 | 79 | 857.8 |
| 20260901122528 | 76 | 149 | 1.0 | 2.0 | 0.00 | 0.00 | 0.00 | 79 | 857.8 |
| 20260901122028 | 76 | 165 | 0.0 | 1.0 | 0.00 | 0.00 | 0.00 | 79 | 857.8 |
| 20260901121531 | 76 | 148 | 0.0 | 1.0 | 0.00 | 0.00 | 0.00 | 79 | 857.8 |
| 20260901121048 | 76 | 0.0 | 0.0 | 0.00 | 0.00 | 0.00 | 79 | 857.7 | |
| 20260901120528 | 76 | 0.0 | 0.0 | 0.00 | 0.00 | 0.00 | 79 | 857.7 | |
| 20260901120030 | 76 | 0.0 | 0.0 | 0.00 | 0.00 | 0.00 | 79 | 857.7 | |
| 20260901115549 | 76 | 139 | 0.0 | 1.0 | 0.00 | 0.00 | 0.00 | 80 | 857.7 |
| 20260901115049 | 76 | 0.0 | 0.0 | 0.00 | 0.00 | 0.00 | 80 | 857.7 | |
| 20260901114529 | 0 | 147 | 0.0 | 0.0 | 0.00 | 0.00 | 0.00 | ||
| 20260901114051 | 75 | 145 | 0.0 | 1.0 | 0.00 | 0.00 | 0.00 | 80 | 857.7 |
| 20260901113529 | 75 | 0.0 | 0.0 | 0.00 | 0.00 | 0.00 | 80 | 857.7 | |
| 20260901113049 | 75 | 0.0 | 0.0 | 0.00 | 0.00 | 0.00 | 80 | 857.7 | |
| 20260901112529 | 76 | 0.0 | 0.0 | 0.00 | 0.00 | 0.00 | 80 | 857.7 |